TimeCST,TemperatureF,Dew PointF,Humidity,Sea Level PressureIn,VisibilityMPH,Wind Direction,Wind SpeedMPH,Gust SpeedMPH,PrecipitationIn,Events,Conditions,WindDirDegrees,DateUTC
12:53 AM,55.0,42.1,62,30.12,10.0,North,11.5,19.6,N/A,,Clear,360,2013-02-08 06:53:00
1:53 AM,53.1,41.0,64,30.11,10.0,North,17.3,26.5,N/A,,Clear,360,2013-02-08 07:53:00
2:53 AM,51.1,37.9,61,30.11,10.0,North,18.4,27.6,N/A,,Clear,10,2013-02-08 08:53:00
3:53 AM,50.0,37.0,61,30.12,10.0,North,15.0,24.2,N/A,,Clear,10,2013-02-08 09:53:00
4:53 AM,48.9,36.0,61,30.14,10.0,North,12.7,-,N/A,,Clear,10,2013-02-08 10:53:00
5:53 AM,48.0,35.1,61,30.15,10.0,NNE,12.7,21.9,N/A,,Clear,20,2013-02-08 11:53:00
6:53 AM,46.9,34.0,61,30.19,10.0,North,10.4,-,N/A,,Clear,10,2013-02-08 12:53:00
7:53 AM,46.0,34.0,63,30.19,10.0,North,10.4,19.6,N/A,,Clear,10,2013-02-08 13:53:00
8:53 AM,50.0,30.9,48,30.22,10.0,NNE,16.1,27.6,N/A,,Clear,20,2013-02-08 14:53:00
9:53 AM,55.0,28.9,37,30.24,10.0,NNE,16.1,-,N/A,,Clear,30,2013-02-08 15:53:00
10:53 AM,59.0,28.0,31,30.24,10.0,ENE,6.9,-,N/A,,Clear,60,2013-02-08 16:53:00
11:53 AM,62.1,26.1,25,30.23,10.0,NE,11.5,-,N/A,,Clear,40,2013-02-08 17:53:00
12:53 PM,64.0,21.9,20,30.20,10.0,NE,10.4,18.4,N/A,,Clear,50,2013-02-08 18:53:00
1:53 PM,64.0,19.0,18,30.16,10.0,ENE,8.1,-,N/A,,Clear,60,2013-02-08 19:53:00
2:53 PM,66.0,19.9,17,30.14,10.0,ENE,8.1,-,N/A,,Clear,70,2013-02-08 20:53:00
3:53 PM,66.0,19.0,17,30.12,10.0,ENE,9.2,-,N/A,,Clear,70,2013-02-08 21:53:00
4:53 PM,66.0,21.0,18,30.11,10.0,ENE,8.1,-,N/A,,Clear,70,2013-02-08 22:53:00
5:53 PM,63.0,21.0,20,30.12,10.0,ESE,5.8,-,N/A,,Clear,120,2013-02-08 23:53:00
6:53 PM,57.9,23.0,26,30.12,10.0,East,4.6,-,N/A,,Clear,80,2013-02-09 00:53:00
7:53 PM,55.9,24.1,29,30.12,10.0,East,4.6,-,N/A,,Clear,90,2013-02-09 01:53:00
8:53 PM,55.9,24.1,29,30.12,10.0,East,6.9,-,N/A,,Clear,90,2013-02-09 02:53:00
9:53 PM,54.0,26.1,34,30.12,10.0,East,4.6,-,N/A,,Clear,100,2013-02-09 03:53:00
10:53 PM,54.0,27.0,35,30.11,10.0,East,6.9,-,N/A,,Clear,90,2013-02-09 04:53:00
11:53 PM,54.0,30.9,41,30.09,10.0,East,6.9,-,N/A,,Clear,100,2013-02-09 05:53:00